CAPE
506 1563 1304 1586 1667 1729 1741 1868 1802 1773 1770 1785 1918 1941 1950 2002 1987 1988 2007 1946 1904 2044 2085 1823 1613 1219 1094 1118 1127 1528 1507 1355 1269 1331 1282 1338 1075 957 943 1078 951 892 1031
1006 1316 1188 1556 1689 1801 1824 1848 1942 1919 1900 1942 2019 2037 2028 2059 2081 2041 2029 1939 1960 2166 2097 1929 1556 1267 1330 1256 1602 1465 1352 1215 1122 1144 1186 1146 1055 948 833 972 1100 952 1188
1419 1347 1351 1459 1740 1852 1904 1916 2076 2167 2080 2047 2078 2105 2121 2147 2172 2097 2014 2001 2039 2280 2129 1647 1529 1522 1441 1553 1418 1362 1306 1175 1043 1046 892 851 929 1094 1011 936 1075 1058 946
1362 1815 1474 1256 1678 1897 1935 1984 2076 2356 2307 2184 2150 2163 1897 2220 2206 1767 2053 2013 2158 2150 1894 1732 1742 1761 1564 1417 1287 1252 1199 1063 981 1044 811 772 874 973 906 866 969 983 919
874 1527 1981 1257 1528 1904 1996 2044 2112 2335 2297 2178 2113 2277 2253 2292 2262 1872 1718 2085 2069 2292 1951 1758 1915 1645 1378 1161 1110 1107 1048 927 646 572 684 803 906 992 1014 912 862 797 835
922 1199 1810 1269 1449 1831 2021 2067 2180 2196 2252 2136 2094 2255 2360 2304 2171 1514 1416 2057 2132 2281 2094 1962 1654 1478 1140 1002 995 997 907 838 456 653 650 653 744 775 771 798 966 863 819
1285 1631 2147 1299 1209 1720 2003 2092 1993 2000 2109 2147 2137 2157 2190 2190 2037 1315 1587 1861 1991 1818 1880 1627 1648 1243 1029 926 889 803 719 622 649 620 776 678 771 770 746 624 558 651 584
1726 1965 2345 1302 1268 1446 1807 1941 1860 1746 1745 2010 2041 1861 2010 1449 1396 966 1186 1323 1270 1252 1108 1448 1260 1076 929 813 660 539 447 378 442 592 523 680 564 590 459 412 301 390 88
2083 2298 2625 2001 1618 1225 1403 1622 1774 1753 1647 1670 1856 1172 1258 727 642 500 721 748 889 699 1033 1100 1038 871 799 562 529 456 307 244 380 249 303 335 450 347 197 177 130 50 13
2294 2479 2684 2402 2338 2191 2016 1417 1427 1628 1562 1260 1359 994 869 643 447 352 317 222 254 543 678 927 724 688 520 412 375 307 194 105 231 79 83 98 323 47 22 27 30 17 16
2253 2556 2355 2310 2416 2398 2170 1891 1344 1288 1174 973 883 716 612 924 578 378 157 82 138 300 282 475 430 535 358 347 293 218 135 77 92 84 61 58 48 6 15 11 16 15 13
2082 2412 2831 2560 2521 2400 1888 2451 2091 2015 1627 1412 956 1107 1128 1168 604 135 39 0 219 276 370 291 273 311 231 204 182 148 159 188 64 83 24 3 4 19 18 8 14 16 16
1964 2244 2408 2414 2475 2389 1978 2411 2428 2048 1744 1852 1403 1423 1207 1266 508 540 121 274 424 426 546 177 143 495 458 349 204 155 145 48 56 78 3 0 37 29 23 20 24 22 20
1801 2053 2176 2480 2356 2180 1832 2403 2189 1934 1906 1705 1466 1289 1294 1160 715 481 520 502 485 574 308 211 291 670 297 246 205 124 104 39 51 70 0 0 52 40 32 25 23 26 18
1431 1941 2209 2252 2047 1913 1962 1952 2070 1956 1860 2001 1488 1341 1209 879 658 195 226 293 270 425 242 185 220 580 339 181 154 83 35 43 43 57 1 2 42 59 32 35 27 23 22
1168 1856 2168 2258 1876 1735 1624 1698 1871 1904 1724 1695 1435 1369 1094 1054 746 441 115 300 515 337 114 93 137 280 347 140 131 60 55 30 7 16 15 32 21 46 45 35 28 29 26
467 1660 2234 2350 2003 1891 1761 1432 1378 1327 1416 1142 1182 1240 984 934 859 663 506 400 232 122 63 69 100 266 253 132 130 97 48 11 2 13 23 25 23 19 34 49 66 35 35
395 1647 2227 2087 1887 1817 1570 1325 1027 1117 1324 939 1014 1029 853 628 706 186 133 142 150 70 69 70 85 272 149 140 35 69 33 9 7 10 16 17 19 19 15 45 67 49 42
790 1717 2245 2047 1755 1767 1529 908 1055 852 602 781 767 732 586 466 361 271 267 54 58 69 66 37 68 280 159 93 38 59 50 21 9 8 21 29 2 12 21 30 32 30 38
1065 1817 2221 1982 1856 1654 1234 1022 737 553 653 538 509 297 432 426 168 334 109 42 46 26 52 19 75 188 146 119 32 53 88 47 19 18 22 22 17 22 15 15 12 9 14
1369 1949 2211 1947 1772 1463 1125 888 656 688 414 273 161 74 84 169 344 353 62 38 39 33 31 25 58 143 137 106 79 45 98 81 68 29 25 8 22 17 38 45 11 2 0
1484 1942 2125 1805 1610 1334 1041 717 494 460 575 421 290 187 48 61 186 33 55 26 17 33 44 30 56 92 153 113 35 54 60 49 50 31 9 15 28 32 26 27 13 2 6
1390 1970 2029 1751 1448 1184 937 658 432 174 295 210 298 372 143 269 242 192 27 49 62 33 22 14 13 78 104 106 124 55 39 32 36 53 41 31 54 33 34 16 5 1 3
1318 1787 1955 1747 1430 1183 946 611 454 346 107 312 223 251 200 146 255 142 31 35 23 17 17 2 47 76 89 116 137 140 94 31 48 55 46 33 31 25 39 15 8 4 3
1254 1739 1890 1693 1464 1181 1030 848 534 298 285 274 130 149 48 30 0 12 18 2 37 43 27 19 38 80 114 120 161 211 174 131 85 88 42 72 80 19 17 43 11 24 22
1095 1856 1790 1688 1463 1239 1187 791 471 300 266 325 158 126 17 12 2 2 26 11 17 31 11 21 41 107 141 162 179 160 141 122 102 84 106 104 134 97 69 86 52 59 85
CIN
-37 -241 -340 -251 -206 -167 -142 -102 -94 -81 -53 -38 -31 -20 -6 -0 -0 -1 0 -0 -1 0 0 0 -0 -0 -3 -8 -10 -1 -1 -4 -8 -0 0 0 0 0 -2 -5 -7 0 0
-61 -220 -365 -270 -221 -171 -136 -113 -82 -59 -59 -35 -23 -10 -2 -0 0 0 0 -0 -0 0 0 0 0 0 -1 -0 0 0 0 -1 -1 -0 -0 0 0 -0 -3 -7 -5 0 0
-82 -170 -260 -276 -204 -162 -127 -110 -71 -38 -26 -25 -18 -9 -0 0 0 0 -0 -0 -0 0 0 0 0 0 0 0 -0 0 -0 -1 -5 -11 -13 -0 0 0 -3 -11 0 0 0
-68 -95 -141 -292 -196 -141 -110 -71 -54 -25 -11 -10 -11 -5 -17 0 0 -13 -0 -1 -0 0 -0 0 0 0 0 -0 -1 -1 -2 -7 -18 -30 -1 -0 0 0 -2 -1 0 0 0
-61 -64 -91 -303 -226 -148 -111 -78 -29 -4 -5 -4 -5 0 -0 0 0 -6 -9 -1 -1 0 0 -0 0 0 0 -4 -6 -6 -13 -31 -39 -3 -1 0 -0 0 0 -1 -1 -1 -1
-55 -49 -145 -218 -241 -162 -110 -76 -45 -9 -0 -1 -1 0 0 0 -0 -19 -21 -1 -0 0 0 0 0 0 -4 -10 -18 -20 -36 -49 -7 -7 -2 -2 -0 0 0 -0 0 0 0
-58 -46 -168 -228 -266 -168 -109 -67 -51 -27 -5 -3 -4 -1 -0 -0 -2 -22 -16 -2 -1 -2 -0 -1 0 -5 -9 -18 -31 -52 -71 -54 -2 -4 -1 -0 0 -0 0 0 0 0 0
-54 -64 -111 -268 -232 -177 -113 -70 -44 -23 -10 -7 -9 -5 -3 -18 -20 -21 -22 -15 -19 -19 -22 -2 -5 -10 -13 -26 -48 -56 -49 -24 -22 -0 -1 -0 -0 0 0 0 -0 0 -15
-64 -67 -57 -140 -172 -203 -143 -88 -44 -11 -5 -5 -11 -13 -8 -22 -29 -6 -11 -23 -22 -23 -20 -9 -9 -15 -21 -29 -22 -23 -12 -11 -9 -9 -8 -1 -0 0 -2 -7 -16 -37 -62
-67 -54 -39 -67 -79 -65 -58 -94 -60 -20 -7 -21 -30 -18 -9 -50 -55 -17 -15 -10 -31 -11 -15 -11 -32 -18 -20 -25 -19 -17 -17 -10 -9 -6 -79 -18 -0 -22 -4 -73 -73 -5 -2
-39 -37 -74 -71 -61 -30 -34 -26 -59 -34 -33 -22 -19 -13 -22 -1 -15 -40 -87 -16 -8 -16 -25 -25 -48 -25 -23 -14 -14 -16 -7 -0 -10 -8 -100 -46 -33 -4 -1 -2 -5 -8 -9
-21 -19 -29 -47 -48 -33 -25 -2 0 0 0 0 0 -1 0 0 -13 -79 -70 0 -3 -14 -35 -28 -40 -42 -27 -9 -7 -5 -11 -10 -0 -1 -75 -26 -24 0 0 -2 -2 -3 -5
-8 -8 -18 -56 -52 -37 -33 -2 0 -1 0 0 0 0 0 0 -10 -4 -49 -4 -0 -7 0 -12 -35 -17 -0 -0 0 -6 -6 -28 -0 -10 -30 0 -47 0 0 -1 -1 -2 -4
-0 -5 -23 -37 -38 -44 -45 -3 0 -5 -7 0 0 -0 -0 -0 0 -2 0 -0 -0 -2 -0 -0 -2 -0 -0 -0 -0 -0 -20 -0 -0 -17 0 0 -59 -0 0 0 0 -0 -1
0 -4 -16 -40 -48 -90 -73 -29 -0 -0 0 -1 0 0 0 0 0 -13 -14 -1 -0 0 -4 -1 -3 -1 -0 0 -1 -16 -0 -0 -0 -2 -1 -6 -8 -48 -0 0 -0 0 -0
-7 -0 -16 -55 -96 -127 -108 -50 -1 -0 -0 0 -0 0 -0 0 0 -1 -19 -0 0 -0 -27 -15 -7 -1 0 -8 -1 -4 -9 -0 -0 -0 0 -1 -26 -8 -1 -1 -0 -0 0
-21 -2 -18 -54 -96 -86 -64 -83 -42 -29 -3 0 -0 0 -0 0 0 0 0 -1 -4 -25 -21 -10 -7 -1 0 -3 -2 -2 -0 0 0 0 -0 0 -7 -17 -12 -2 -0 -0 -0
-28 -11 -11 -74 -112 -75 -74 -102 -103 -42 0 -0 0 -0 0 -0 -0 -0 -16 -13 -17 -34 -3 -1 -10 -0 -7 -0 -17 0 -0 0 0 -0 0 -0 0 -0 -24 -14 -4 -5 -2
-15 -33 -22 -88 -126 -79 -83 -171 -102 -77 -48 -3 0 0 0 0 -0 -1 -1 -22 -21 -19 -0 -0 -14 0 -0 -12 -13 0 -1 -0 -0 0 -0 -1 -0 -1 -1 -16 -16 -17 -9
-14 -39 -32 -96 -85 -68 -133 -134 -139 -121 -23 -15 -3 -1 0 0 -3 0 -4 -1 -1 -20 -0 -0 -15 -1 -0 -2 -2 -2 -12 -8 0 -0 0 0 -0 -0 -0 -0 -3 -6 -24
-8 -42 -48 -83 -84 -101 -140 -165 -169 -76 -53 -46 -43 -76 -44 -1 0 0 0 -3 0 -13 0 -1 -20 -1 -11 -20 -11 -23 -10 -8 -9 -0 -1 0 -1 0 -1 -0 0 0 0
-37 -46 -54 -90 -102 -132 -127 -171 -185 -102 -33 -13 -22 -20 -66 -48 -13 -5 -3 -1 -0 -0 0 -0 -3 -8 -4 -6 -9 0 -1 -3 -2 -6 -2 0 -0 0 -0 -0 -0 -0 -1
-47 -60 -51 -90 -131 -155 -132 -170 -169 -149 -69 -55 -19 -3 -11 -0 0 0 -9 -3 -2 -2 0 0 0 -11 -4 -3 -1 0 0 0 0 -1 -2 -2 0 0 -0 -0 0 0 -0
-52 -59 -36 -80 -131 -133 -136 -188 -158 -122 -131 -35 -36 -13 -2 -0 -0 -0 -0 0 -11 0 0 0 -10 -15 -6 -0 -1 0 -3 0 -1 -0 0 -2 -0 -0 0 -0 0 -0 -13
-54 -58 -42 -72 -104 -113 -119 -118 -122 -111 -84 -56 -73 -42 -47 -6 0 -27 0 0 0 0 0 -0 -9 -9 -6 -3 -0 -0 -3 -6 -27 -2 -10 -0 -0 0 -16 -7 -44 -51 -52
-39 -28 -61 -77 -94 -92 -81 -119 -120 -112 -110 -63 -83 -66 -0 -66 -23 -3 -2 0 0 -0 0 0 -9 -4 -3 -0 -1 -5 -1 -4 -7 -3 -3 -3 -0 -0 -1 -1 -18 -14 -24
Wind_Speed
27 33 31 32 33 32 32 32 34 34 34 33 31 31 31 31 32 35 35 34 36 38 36 35 35 32 31 33 34 33 32 30 30 29 29 28 26 26 24 20 23 26 23
30 33 31 33 33 34 32 31 33 34 36 32 30 28 32 33 32 34 36 37 35 33 34 35 34 32 32 32 31 31 28 28 26 26 27 27 24 24 21 22 26 24 24
31 32 33 31 32 34 31 31 32 34 34 34 31 29 32 35 36 36 35 34 32 30 33 34 32 32 33 33 31 30 27 25 24 23 21 21 25 28 30 30 27 25 25
31 31 30 30 30 29 30 30 31 33 35 36 34 31 32 33 35 34 32 29 28 28 29 30 32 34 34 32 30 28 25 23 19 15 20 19 23 27 30 29 28 28 27
34 32 33 35 34 35 32 32 31 31 33 34 34 34 35 34 31 32 31 27 28 30 26 26 32 33 32 30 28 27 24 20 15 18 24 22 22 25 28 28 27 26 27
33 30 39 35 35 35 34 33 34 34 32 34 34 34 38 36 31 32 32 27 27 29 24 23 27 30 31 30 28 24 21 16 22 26 23 24 26 27 29 32 30 30 30
33 30 34 34 37 38 36 36 34 33 37 33 35 35 35 36 35 34 33 28 28 27 25 28 31 32 31 29 26 25 20 24 25 23 25 26 27 28 30 32 32 31 32
34 30 33 32 33 37 38 40 37 30 37 36 33 33 32 34 31 31 30 29 27 24 25 31 31 33 34 31 27 24 24 23 24 23 26 26 26 28 29 31 32 30 nan
35 29 30 31 32 31 36 39 37 33 31 33 29 28 22 31 20 22 31 34 32 29 25 30 30 33 36 33 30 29 29 29 21 23 24 26 27 29 28 29 29 nan nan
36 28 29 30 35 33 34 37 35 36 30 30 29 31 31 29 22 36 35 39 30 24 18 29 25 31 35 34 32 31 30 27 25 nan nan nan 29 nan nan nan nan nan nan
36 31 26 28 33 34 33 35 34 32 33 34 33 30 31 24 28 35 38 nan 22 20 19 24 21 29 34 37 34 31 29 nan nan nan nan nan nan nan nan nan nan nan nan
36 29 32 29 32 30 30 34 28 30 30 27 25 23 24 26 23 27 nan nan 21 22 30 27 22 26 29 33 33 31 29 31 nan nan nan nan nan nan nan nan nan nan nan
34 27 30 31 32 28 31 29 25 29 30 25 22 22 21 24 25 25 21 21 22 29 27 35 26 16 19 28 32 32 31 nan nan nan nan nan nan nan nan nan nan nan nan
35 31 29 33 30 30 30 29 23 31 32 25 24 22 24 24 26 25 21 27 23 28 30 27 32 16 17 20 29 32 36 nan nan nan nan nan nan nan nan nan nan nan nan
31 31 33 33 31 34 37 33 26 27 31 26 26 23 25 25 28 28 24 24 25 25 21 21 25 26 20 20 28 nan nan nan nan nan nan nan nan nan nan nan nan nan nan
25 30 35 36 30 36 34 33 30 31 31 26 28 26 23 27 29 23 24 24 22 20 25 nan 18 29 24 24 26 nan nan nan nan nan nan nan nan nan nan nan nan nan nan
26 31 33 32 29 32 30 33 32 35 30 31 28 26 26 28 28 27 25 24 23 22 nan nan 21 27 24 23 23 nan nan nan nan nan nan nan nan nan nan nan nan nan nan
29 30 31 30 28 30 33 34 34 35 30 31 29 28 25 26 28 32 29 26 25 nan nan nan nan 25 24 19 nan nan nan nan nan nan nan nan nan nan nan nan nan nan nan
30 29 30 29 29 31 35 32 35 36 30 25 28 29 26 28 28 29 28 nan nan nan nan nan nan 26 24 nan nan nan nan nan nan nan nan nan nan nan nan nan nan nan nan
31 30 30 28 29 33 34 30 33 32 21 21 23 23 24 28 28 26 28 nan nan nan nan nan nan 31 30 21 nan nan nan nan nan nan nan nan nan nan nan nan nan nan nan
31 30 28 28 30 31 29 30 29 21 17 19 21 nan nan 29 26 26 nan nan nan nan nan nan nan 30 31 31 nan nan nan nan nan nan nan nan nan nan nan nan nan nan nan
27 28 27 27 30 30 27 26 25 19 14 17 19 22 nan nan 23 nan nan nan nan nan nan nan nan nan 36 37 nan nan nan nan nan nan nan nan nan nan nan nan nan nan nan
22 23 24 26 31 27 25 26 21 18 13 16 17 22 22 21 17 22 nan nan nan nan nan nan nan nan 37 36 31 nan nan nan nan nan nan nan nan nan nan nan nan nan nan
17 20 22 27 30 25 26 27 19 15 14 11 16 19 17 18 14 24 nan nan nan nan nan nan nan nan nan 30 20 17 nan nan nan nan nan nan nan nan nan nan nan nan nan
20 20 21 27 27 26 24 24 16 12 12 11 16 20 nan nan nan nan nan nan nan nan nan nan nan nan 31 25 12 13 14 17 nan nan nan nan nan nan nan nan nan nan nan
21 22 23 27 25 23 23 22 14 14 10 11 14 15 nan nan nan nan nan nan nan nan nan nan nan 20 16 16 18 14 14 14 17 nan 24 28 28 nan nan nan nan nan nan
Wind_Direction
292 305 316 320 317 315 312 308 306 306 305 304 300 298 298 295 295 292 291 293 285 279 282 281 273 265 256 249 244 240 244 247 247 247 251 259 267 277 283 285 293 282 286
298 309 320 323 322 320 316 310 307 306 307 305 300 301 302 303 301 295 293 290 293 293 283 277 274 270 264 257 248 247 248 251 252 253 259 262 262 269 271 270 272 278 285
302 313 329 322 324 324 318 315 311 312 310 306 303 303 305 306 303 294 292 294 293 299 289 279 273 268 264 256 252 252 253 254 256 263 267 259 257 262 265 266 273 277 283
307 314 325 319 316 318 323 313 312 315 315 308 305 304 305 303 304 304 296 291 287 288 287 281 277 267 259 253 251 250 250 248 252 262 253 255 261 264 266 271 276 275 281
305 314 316 322 315 318 315 312 308 308 309 305 301 302 302 300 305 301 299 298 289 285 288 284 271 267 256 250 247 248 245 249 254 233 246 251 253 261 268 271 274 275 281
304 316 312 321 318 316 312 309 309 306 298 298 296 301 301 299 305 306 301 294 292 285 288 281 268 259 250 247 245 243 243 240 230 235 237 250 251 260 259 257 260 265 279
304 312 316 317 314 311 307 304 302 306 298 297 297 297 300 301 299 300 294 291 285 282 274 268 269 257 248 244 242 239 233 229 234 240 236 244 251 261 263 261 264 267 273
304 314 312 311 306 304 302 297 297 297 292 291 293 297 305 308 296 296 292 290 275 264 266 266 265 256 245 238 232 228 220 222 227 243 252 246 255 260 261 262 266 269 nan
299 315 309 314 307 297 293 292 293 289 285 288 285 281 308 292 284 247 287 270 268 251 254 264 264 252 248 239 232 221 215 218 241 233 243 251 258 262 261 263 271 nan nan
295 311 304 307 304 300 293 292 292 291 284 283 275 279 287 284 282 279 265 205 257 225 267 263 258 247 241 240 236 227 217 206 239 nan nan nan 258 nan nan nan nan nan nan
294 313 298 302 300 297 293 296 293 293 289 280 279 280 281 281 285 293 289 nan 239 239 251 252 259 251 242 241 236 231 222 nan nan nan nan nan nan nan nan nan nan nan nan
296 310 300 298 299 301 292 291 300 297 293 287 285 283 279 284 289 288 nan nan 252 245 263 251 250 253 249 240 230 229 218 212 nan nan nan nan nan nan nan nan nan nan nan
294 302 299 301 300 297 294 290 298 291 286 278 281 281 280 280 288 275 266 278 286 267 275 242 246 229 242 249 245 235 223 nan nan nan nan nan nan nan nan nan nan nan nan
297 300 302 302 297 295 285 297 298 287 278 274 271 282 272 277 287 283 279 289 284 273 274 244 230 245 251 253 253 242 229 nan nan nan nan nan nan nan nan nan nan nan nan
296 298 297 294 295 285 283 292 295 288 280 272 275 282 276 288 286 284 281 280 274 276 261 244 233 247 240 251 251 nan nan nan nan nan nan nan nan nan nan nan nan nan nan
295 295 291 294 295 289 290 297 295 289 275 269 267 279 287 283 287 285 289 283 271 265 229 nan 228 234 230 241 250 nan nan nan nan nan nan nan nan nan nan nan nan nan nan
285 287 292 295 298 298 302 302 294 285 270 266 266 277 290 291 291 288 293 285 273 252 nan nan 215 222 237 240 252 nan nan nan nan nan nan nan nan nan nan nan nan nan nan
281 288 291 290 294 298 300 295 287 283 277 262 266 266 288 290 289 280 276 285 266 nan nan nan nan 208 228 243 nan nan nan nan nan nan nan nan nan nan nan nan nan nan nan
276 282 286 290 295 297 299 289 286 284 276 259 265 268 281 280 283 279 276 nan nan nan nan nan nan 217 238 nan nan nan nan nan nan nan nan nan nan nan nan nan nan nan nan
274 279 282 287 295 301 293 289 287 282 270 264 266 272 280 281 280 278 272 nan nan nan nan nan nan 219 229 244 nan nan nan nan nan nan nan nan nan nan nan nan nan nan nan
271 276 287 290 298 297 292 290 291 282 278 271 274 nan nan 280 274 274 nan nan nan nan nan nan nan 231 230 247 nan nan nan nan nan nan nan nan nan nan nan nan nan nan nan
271 279 289 290 296 296 287 292 285 272 273 280 284 292 nan nan 279 nan nan nan nan nan nan nan nan nan 235 245 nan nan nan nan nan nan nan nan nan nan nan nan nan nan nan
273 286 287 289 294 295 294 295 276 267 272 281 296 295 286 284 267 271 nan nan nan nan nan nan nan nan 237 242 260 nan nan nan nan nan nan nan nan nan nan nan nan nan nan
273 273 280 282 292 295 303 295 288 281 287 295 296 309 298 280 253 259 nan nan nan nan nan nan nan nan nan 248 251 272 nan nan nan nan nan nan nan nan nan nan nan nan nan
262 263 267 277 292 297 311 293 282 304 291 292 292 301 nan nan nan nan nan nan nan nan nan nan nan nan 233 248 237 233 225 215 nan nan nan nan nan nan nan nan nan nan nan
244 252 259 277 289 302 305 288 289 290 300 293 295 299 nan nan nan nan nan nan nan nan nan nan nan 227 228 223 219 221 237 255 253 nan 264 281 284 nan nan nan nan nan nan